Location: Elstree
(51.6403°N, 0.2969°W)
Time: 23:38:49
(UTC+00:00)

BlueWalker 3 - Visible Passes

Search period start: 06 December 2022 00:00
Search period end: 16 December 2022 00:00
Orbit: 501 x 518 km, 53.2° (Epoch: 06 December)

Date Brightness Start Highest point End Pass type
(mag) Time Alt. Az. Time Alt. Az. Time Alt. Az.
06 Dec 1.9 18:01:40 10° WNW 18:05:35 79° SSW 18:06:30 50° SE visible
06 Dec 5.1 19:40:41 10° W 19:41:21 13° W 19:41:21 13° W visible
07 Dec 2.0 17:43:15 10° WNW 17:47:11 76° SSW 17:49:07 28° ESE visible
07 Dec 4.6 19:22:19 10° W 19:23:57 18° WSW 19:23:57 18° WSW visible
08 Dec 2.1 17:24:51 10° WNW 17:28:46 74° SSW 17:31:50 16° ESE visible
08 Dec 4.2 19:03:57 10° W 19:06:42 21° SW 19:06:42 21° SW visible
09 Dec 2.2 17:06:26 10° WNW 17:10:21 72° SSW 17:14:14 10° ESE visible
09 Dec 4.2 18:45:36 10° W 18:48:33 21° SW 18:49:37 19° SSW visible
10 Dec 2.3 16:48:01 10° WNW 16:51:56 69° SSW 16:55:48 10° ESE visible
10 Dec 4.4 18:27:14 10° W 18:30:06 20° SW 18:32:47 11° S visible
11 Dec 2.4 16:29:36 10° WNW 16:33:30 67° SSW 16:37:23 10° ESE visible
11 Dec 4.6 18:08:52 10° W 18:11:39 19° SW 18:14:25 10° S visible
12 Dec 4.8 17:50:30 10° W 17:53:11 18° SW 17:55:52 10° S visible
13 Dec 4.9 17:32:08 10° W 17:34:44 17° SW 17:37:18 10° S visible
14 Dec 5.0 17:13:47 10° W 17:16:16 16° SW 17:18:43 10° S visible
15 Dec 5.1 16:55:26 10° W 16:57:47 15° SW 17:00:07 10° S visible
